Yuma MCAS, AZ

6:05 AM MST on March 26, 2017 (GMT -0700)
Yuma Marine Corps Air Station

Weather History for KNYL - January, 2014

Change the Weather History Date:

Wednesday, January 8, 2014

  Actual Average Record
Temperature  
Mean Temperature 59 °F 58 °F  
Max Temperature 72 °F 69 °F 84 °F (1962)
Min Temperature 46 °F 47 °F 24 °F (1971)
Degree Days  
Heating Degree Days 6 7  
Month to date heating degree days 40 60  
Since 1 July heating degree days 281 364  
Cooling Degree Days 0 0  
Month to date cooling degree days 0 0  
Year to date cooling degree days 0 0  
Growing Degree Days 8 (Base 50)    
Moisture  
Dew Point 22 °F    
Average Humidity 29    
Maximum Humidity 46    
Minimum Humidity 11    
Precipitation  
Precipitation 0.00 in 0.02 in 0.17 in (1974)
Month to date precipitation 0.00 0.13  
Year to date precipitation 0.00 0.13  
Sea Level Pressure  
Sea Level Pressure 30.04 in    
Wind  
Wind Speed 4 mph (NE)    
Max Wind Speed 10 mph    
Max Gust Speed 12 mph    
Visibility 10 miles    
Events      
T = Trace of Precipitation, MM = Missing Value Source: NWS Daily Summary

Daily Weather History Graph

Daily Weather History Graph

Search for Another Location

Airport or City:

Trip Planner

Search our weather history database for the weather conditions in past years. The results will help you decide how hot, cold, wet, or windy it might be!

Date:

Astronomy

Jan. 08, 2014 Rise Set
Actual Time 7:41 AM MST 5:49 PM MST
Civil Twilight 7:14 AM MST 6:16 PM MST
Nautical Twilight 6:43 AM MST 6:46 PM MST
Astronomical Twilight 6:14 AM MST 7:16 PM MST
Moon 12:34 PM MST (1/8) 1:02 AM MST (1/8)
Length of Visible Light 11h 01m
Length of Day
10h 07m
First Quarter, 56% of the Moon is Illuminated
Jan 8
First Quarter
Jan 15
Full
Jan 23
Last Quarter
Jan 30
New
Feb 6
First Quarter

Hourly Weather History & Observations

Time (MST) Temp. Dew Point Humidity Pressure Visibility Wind Dir Wind Speed Gust Speed Precip Events Conditions
12:57 AM 54.0 °F 23.0 °F 30% 30.04 in 10.0 mi Calm Calm - N/A   Clear
1:57 AM 55.0 °F 19.0 °F 24% 30.03 in 10.0 mi East 5.8 mph - N/A   Clear
2:57 AM 53.1 °F 21.0 °F 29% 30.05 in 10.0 mi NNW 3.5 mph - N/A   Clear
3:57 AM 51.1 °F 19.9 °F 29% 30.03 in 10.0 mi ENE 4.6 mph - N/A   Clear
4:57 AM 50.0 °F 19.0 °F 29% 30.02 in 10.0 mi NNE 4.6 mph - N/A   Clear
5:57 AM 48.0 °F 21.0 °F 34% 30.02 in 10.0 mi Calm Calm - N/A   Scattered Clouds
6:57 AM 46.9 °F 23.0 °F 39% 30.04 in 10.0 mi NNE 3.5 mph - N/A   Scattered Clouds
7:57 AM 48.0 °F 19.0 °F 32% 30.04 in 10.0 mi NE 5.8 mph - N/A   Mostly Cloudy
8:57 AM 52.0 °F 21.0 °F 30% 30.06 in 10.0 mi NE 8.1 mph - N/A   Scattered Clouds
9:57 AM 55.9 °F 24.1 °F 29% 30.09 in 10.0 mi ENE 6.9 mph - N/A   Scattered Clouds
10:57 AM 61.0 °F 26.1 °F 26% 30.11 in 10.0 mi NE 8.1 mph - N/A   Partly Cloudy
11:57 AM 66.0 °F 21.9 °F 19% 30.08 in 10.0 mi NNE 9.2 mph - N/A   Partly Cloudy
12:57 PM 68.0 °F 15.1 °F 13% 30.05 in 10.0 mi NNE 4.6 mph - N/A   Mostly Cloudy
1:57 PM 70.0 °F 15.1 °F 12% 30.03 in 10.0 mi ENE 4.6 mph - N/A   Mostly Cloudy
2:57 PM 70.0 °F 16.0 °F 13% 30.02 in 10.0 mi NE 5.8 mph - N/A   Mostly Cloudy
3:57 PM 71.1 °F 15.1 °F 12% 30.01 in 10.0 mi East 3.5 mph - N/A   Mostly Cloudy
4:57 PM 71.1 °F 14.0 °F 11% 30.01 in 10.0 mi ENE 3.5 mph - N/A   Scattered Clouds
5:57 PM 64.9 °F 23.0 °F 20% 30.01 in 10.0 mi South 4.6 mph - N/A   Scattered Clouds
6:57 PM 59.0 °F 25.0 °F 27% 30.02 in 10.0 mi Calm Calm - N/A   Scattered Clouds
7:57 PM 57.9 °F 24.1 °F 27% 30.03 in 10.0 mi Calm Calm - N/A   Scattered Clouds
8:57 PM 54.0 °F 27.0 °F 35% 30.04 in 10.0 mi ENE 4.6 mph - N/A   Scattered Clouds
9:57 PM 48.9 °F 28.9 °F 46% 30.05 in 10.0 mi Calm Calm - N/A   Partly Cloudy
10:57 PM 50.0 °F 28.0 °F 43% 30.05 in 10.0 mi Calm Calm - N/A   Mostly Cloudy
11:57 PM 51.1 °F 27.0 °F 39% 30.05 in 10.0 mi NE 8.1 mph - N/A   Clear